sat.trackr.live / text

‹ back to catalog

STARLINK-4128

NORAD 53249 · 2022-086H

PAYLOAD ACTIVE UNKNOWN

§ Identity

Operator
Country
US
Launch date
2022-07-24
Launch site
AFETR
Launch vehicle
Mass (kg)
RCS (m²)

Purposes: comms

External: N2YO · Heavens-Above · Gunter

§ Orbital elements

Epoch: 2026-09-20T01:55:32.791296Z

Period
94.01 min
Inclination
53.1615°
Eccentricity
0.0001221
Mean motion
15.31699132 rev/d
Perigee alt
469.9 km
Apogee alt
471.6 km
Semi-major
6,848.9 km
B*
2.5305e-5
RAAN
27.0284°
Arg perigee
82.0801°
Mean anomaly
278.0339°
Rev number
23,062

§ Raw data

STARLINK-41281 53249U 22086H   26263.08024064  .00000420  00000+0  25305-4 0  99982 53249  53.1615  27.0284 0001221  82.0801 278.0339 15.31699132230629

JSON: /api/v1/satellites/53249 · /tle

For live sub-satellite position, see the globe view (requires WebGL).

§ Visibility from observer

Set your observer location to see the next 7 days of passes ≥ 10°. The values pass through the URL so the page stays shareable.

No JS? Fill the form by hand. The geolocation button needs JavaScript.